Precipitable_Water
0.70 0.66 0.63 0.61 0.65 0.66 0.61 0.47 0.28 0.46 0.55 0.30 0.31 0.21 0.23 0.29 0.26 0.32 0.30 0.30 0.28 0.25 0.27 0.24 0.25 0.25 0.31 0.40 0.38 0.29 0.40 0.37 0.27 0.27 0.37 0.37 0.32 0.29 0.29 0.25 0.23 0.25 0.23 0.19
0.66 0.65 0.62 0.58 0.62 0.66 0.56 0.39 0.37 0.51 0.49 0.23 0.22 0.25 0.24 0.27 0.25 0.26 0.26 0.25 0.26 0.27 0.22 0.17 0.19 0.17 0.21 0.22 0.22 0.26 0.33 0.30 0.22 0.24 0.34 0.41 0.38 0.38 0.39 0.34 0.32 0.25 0.24 0.22
0.63 0.63 0.58 0.60 0.58 0.59 0.53 0.39 0.28 0.38 0.41 0.34 0.25 0.20 0.19 0.23 0.28 0.24 0.26 0.23 0.24 0.22 0.21 0.23 0.18 0.20 0.26 0.29 0.29 0.31 0.32 0.24 0.21 0.18 0.23 0.29 0.27 0.31 0.34 0.33 0.28 0.24 0.26 0.23
0.59 0.59 0.58 0.58 0.58 0.57 0.53 0.39 0.30 0.32 0.24 0.26 0.26 0.26 0.21 0.19 0.18 0.24 0.26 0.21 0.20 0.22 0.18 0.17 0.15 0.21 0.21 0.22 0.24 0.21 0.22 0.14 0.17 0.17 0.20 0.26 0.27 0.27 0.30 0.29 0.27 0.26 0.25 0.28
0.59 0.58 0.57 0.55 0.57 0.57 0.47 0.34 0.31 0.33 0.29 0.29 0.28 0.28 0.22 0.19 0.18 0.21 0.21 0.19 0.22 0.23 0.17 0.18 0.17 0.24 0.24 0.24 0.28 0.28 0.36 0.17 0.21 0.14 0.19 0.22 0.20 0.22 0.24 0.27 0.25 0.28 0.28 0.26
0.56 0.57 0.56 0.51 0.56 0.59 0.43 0.44 0.43 0.33 0.27 0.27 0.24 0.21 0.24 0.26 0.27 0.27 0.27 0.26 0.25 0.22 0.23 0.30 0.29 0.31 0.29 0.27 0.25 0.22 0.24 0.27 0.22 0.14 0.21 0.22 0.17 0.15 0.21 0.28 0.32 0.30 0.24 0.28
0.52 0.52 0.54 0.56 0.54 0.55 0.48 0.44 0.39 0.30 0.22 0.25 0.22 0.23 0.23 0.24 0.28 0.27 0.32 0.33 0.30 0.32 0.40 0.36 0.34 0.32 0.31 0.30 0.26 0.28 0.23 0.23 0.23 0.16 0.19 0.11 0.16 0.25 0.27 0.29 0.34 0.38 0.37 0.34
0.48 0.47 0.49 0.52 0.53 0.55 0.51 0.50 0.40 0.32 0.23 0.24 0.23 0.24 0.24 0.25 0.27 0.27 0.27 0.29 0.34 0.38 0.37 0.29 0.24 0.22 0.21 0.20 0.23 0.25 0.27 0.23 0.18 0.16 0.15 0.17 0.17 0.20 0.23 0.25 0.23 0.36 0.36 0.36
0.42 0.41 0.41 0.43 0.45 0.48 0.50 0.48 0.49 0.37 0.26 0.21 0.25 0.22 0.23 0.20 0.21 0.22 0.23 0.31 0.35 0.33 0.25 0.25 0.19 0.15 0.17 0.17 0.20 0.27 0.26 0.27 0.21 0.19 0.15 0.11 0.15 0.24 0.31 0.32 0.19 0.31 0.34 0.34
0.46 0.46 0.44 0.42 0.40 0.40 0.42 0.42 0.46 0.37 0.27 0.28 0.27 0.21 0.20 0.24 0.22 0.19 0.21 0.24 0.24 0.30 0.22 0.18 0.16 0.17 0.20 0.14 0.14 0.18 0.22 0.22 0.16 0.16 0.16 0.15 0.16 0.22 0.29 0.18 0.19 0.35 0.36 0.35
0.41 0.41 0.40 0.40 0.38 0.37 0.38 0.36 0.44 0.36 0.28 0.28 0.29 0.28 0.23 0.23 0.22 0.17 0.20 0.20 0.21 0.20 0.19 0.18 0.20 0.19 0.19 0.18 0.19 0.19 0.17 0.19 0.20 0.20 0.16 0.12 0.25 0.26 0.22 0.29 0.38 0.40 0.39 0.38
0.36 0.36 0.36 0.37 0.38 0.41 0.42 0.31 0.39 0.42 0.32 0.31 0.37 0.32 0.32 0.28 0.26 0.23 0.24 0.20 0.21 0.20 0.18 0.20 0.19 0.18 0.26 0.23 0.16 0.26 0.18 0.21 0.19 0.23 0.22 0.30 0.35 0.38 0.42 0.43 0.39 0.40 0.39 0.40
0.40 0.42 0.44 0.46 0.46 0.46 0.46 0.43 0.43 0.38 0.30 0.29 0.30 0.27 0.33 0.36 0.33 0.32 0.22 0.23 0.25 0.26 0.33 0.25 0.24 0.25 0.24 0.18 0.19 0.22 0.26 0.31 0.28 0.29 0.31 0.33 0.38 0.43 0.47 0.43 0.41 0.42 0.43 0.42
0.50 0.50 0.50 0.50 0.51 0.53 0.53 0.47 0.48 0.40 0.34 0.23 0.23 0.38 0.32 0.35 0.39 0.34 0.32 0.29 0.32 0.33 0.36 0.31 0.27 0.26 0.32 0.23 0.25 0.24 0.27 0.30 0.29 0.30 0.35 0.39 0.44 0.45 0.43 0.44 0.44 0.43 0.43 0.43
0.51 0.52 0.54 0.55 0.56 0.56 0.54 0.51 0.50 0.49 0.31 0.24 0.24 0.30 0.32 0.36 0.37 0.33 0.33 0.32 0.30 0.30 0.29 0.28 0.26 0.36 0.34 0.33 0.31 0.25 0.30 0.27 0.27 0.27 0.39 0.38 0.40 0.44 0.47 0.44 0.42 0.43 0.43 0.40
0.58 0.58 0.58 0.58 0.58 0.60 0.54 0.37 0.49 0.51 0.43 0.28 0.24 0.38 0.37 0.34 0.34 0.35 0.32 0.32 0.34 0.33 0.32 0.30 0.31 0.37 0.36 0.27 0.24 0.30 0.35 0.39 0.41 0.37 0.44 0.43 0.46 0.49 0.47 0.43 0.45 0.45 0.39 0.35
0.59 0.59 0.59 0.59 0.60 0.56 0.42 0.37 0.42 0.52 0.49 0.32 0.25 0.25 0.36 0.39 0.33 0.33 0.33 0.35 0.34 0.33 0.32 0.28 0.30 0.33 0.35 0.30 0.24 0.29 0.32 0.36 0.43 0.46 0.47 0.44 0.47 0.43 0.48 0.49 0.46 0.36 0.31 0.30
0.62 0.63 0.62 0.60 0.61 0.57 0.48 0.53 0.54 0.51 0.41 0.36 0.23 0.22 0.32 0.40 0.27 0.24 0.34 0.30 0.33 0.33 0.32 0.33 0.29 0.32 0.30 0.21 0.25 0.27 0.33 0.42 0.45 0.45 0.47 0.46 0.49 0.49 0.47 0.43 0.33 0.27 0.26 0.25
0.62 0.64 0.64 0.60 0.50 0.43 0.47 0.57 0.57 0.54 0.41 0.26 0.25 0.20 0.23 0.38 0.32 0.32 0.31 0.33 0.25 0.35 0.28 0.27 0.28 0.23 0.18 0.21 0.24 0.30 0.37 0.39 0.41 0.47 0.47 0.48 0.46 0.45 0.44 0.34 0.29 0.26 0.24 0.22
0.60 0.57 0.46 0.38 0.47 0.59 0.57 0.47 0.38 0.37 0.39 0.36 0.30 0.32 0.27 0.34 0.31 0.28 0.29 0.35 0.28 0.21 0.26 0.33 0.26 0.23 0.28 0.30 0.33 0.35 0.41 0.44 0.46 0.44 0.42 0.44 0.44 0.43 0.37 0.31 0.26 0.26 0.22 0.23
0.51 0.43 0.39 0.52 0.59 0.47 0.41 0.32 0.29 0.30 0.27 0.30 0.34 0.34 0.29 0.39 0.27 0.26 0.30 0.26 0.27 0.19 0.22 0.24 0.21 0.17 0.23 0.30 0.33 0.39 0.44 0.46 0.48 0.50 0.49 0.49 0.45 0.38 0.36 0.26 0.25 0.23 0.23 0.21
0.49 0.48 0.54 0.52 0.42 0.36 0.29 0.27 0.29 0.26 0.24 0.29 0.27 0.31 0.35 0.37 0.40 0.30 0.30 0.24 0.26 0.19 0.31 0.24 0.18 0.22 0.31 0.35 0.38 0.42 0.45 0.48 0.50 0.52 0.49 0.49 0.46 0.40 0.31 0.24 0.22 0.23 0.23 0.20
0.50 0.42 0.38 0.35 0.31 0.22 0.21 0.17 0.20 0.21 0.27 0.30 0.29 0.27 0.33 0.36 0.37 0.33 0.30 0.24 0.23 0.33 0.26 0.22 0.24 0.31 0.36 0.40 0.43 0.46 0.49 0.51 0.50 0.50 0.49 0.46 0.41 0.35 0.29 0.22 0.23 0.24 0.21 0.18
0.37 0.32 0.26 0.26 0.23 0.23 0.23 0.22 0.20 0.25 0.29 0.32 0.34 0.32 0.32 0.35 0.31 0.32 0.26 0.30 0.30 0.23 0.21 0.20 0.27 0.32 0.38 0.43 0.46 0.46 0.46 0.49 0.49 0.46 0.45 0.39 0.31 0.28 0.24 0.23 0.25 0.22 0.18 0.15
0.35 0.34 0.25 0.27 0.31 0.32 0.31 0.31 0.29 0.32 0.36 0.35 0.35 0.35 0.34 0.31 0.30 0.31 0.29 0.25 0.22 0.23 0.21 0.25 0.31 0.35 0.40 0.42 0.44 0.45 0.47 0.47 0.47 0.44 0.40 0.31 0.27 0.24 0.22 0.25 0.24 0.20 0.16 0.14
0.38 0.34 0.31 0.35 0.32 0.31 0.32 0.33 0.32 0.38 0.38 0.40 0.37 0.32 0.29 0.28 0.29 0.24 0.22 0.21 0.18 0.22 0.27 0.31 0.33 0.34 0.40 0.42 0.43 0.44 0.45 0.44 0.43 0.38 0.31 0.26 0.23 0.23 0.24 0.24 0.20 0.17 0.14 0.12
0.33 0.32 0.38 0.36 0.35 0.35 0.36 0.38 0.37 0.42 0.36 0.29 0.29 0.25 0.25 0.30 0.26 0.23 0.26 0.22 0.25 0.30 0.30 0.32 0.34 0.38 0.42 0.42 0.40 0.39 0.37 0.36 0.31 0.26 0.24 0.23 0.25 0.26 0.23 0.20 0.16 0.14 0.13 0.12
Wind_Speed
45 45 42 41 40 40 37 36 35 34 33 32 32 36 33 32 28 29 29 27 29 28 26 26 26 26 24 21 21 22 22 21 24 25 24 24 23 25 26 27 28 25 29 36
44 43 42 40 40 39 36 35 35 34 34 35 36 33 33 34 28 29 27 29 30 28 27 27 29 31 28 28 26 22 21 20 22 23 19 21 24 28 28 22 22 28 29 32
40 41 42 41 38 39 37 33 33 35 37 36 37 38 37 34 31 32 29 28 28 27 27 27 27 25 23 21 22 21 22 23 25 26 23 22 23 23 24 27 27 32 31 35
36 36 37 37 37 37 36 34 32 32 33 38 38 34 33 37 35 33 30 31 34 28 27 29 33 28 27 26 26 26 25 29 29 31 32 30 31 31 31 30 33 29 34 33
35 35 35 34 36 35 36 30 28 28 28 32 33 37 35 38 35 33 30 35 27 28 32 32 25 22 24 24 21 18 18 23 23 29 29 28 32 34 33 33 33 34 34 37
38 36 36 35 34 33 30 33 31 28 29 26 27 32 31 31 34 34 32 31 28 29 30 29 31 30 31 31 29 28 24 22 21 26 21 23 26 33 31 30 30 29 29 31
34 35 36 35 34 37 30 34 31 28 28 30 32 28 29 32 31 28 25 26 27 26 26 28 28 28 29 29 31 29 27 24 23 25 23 26 25 23 24 25 28 31 32 31
27 29 32 33 35 34 33 27 28 28 27 29 29 28 27 27 27 28 28 28 28 26 22 24 26 26 26 30 32 30 30 28 25 24 26 29 30 26 22 21 22 21 24 24
23 25 27 29 32 35 36 34 32 28 29 33 32 31 31 29 28 27 28 27 26 25 23 22 21 22 21 21 21 21 27 29 26 23 22 23 21 19 17 17 20 16 14 14
23 23 24 26 28 31 34 34 36 32 31 30 30 30 30 29 28 27 25 24 24 25 24 23 23 22 21 23 23 18 17 21 29 27 25 25 24 20 17 19 17 13 13 12
21 22 23 24 25 27 29 30 33 32 30 29 28 30 28 25 27 27 24 24 26 25 25 23 22 22 21 22 19 21 20 16 16 21 21 24 16 16 19 16 15 13 11 11
22 23 23 24 24 25 25 24 26 28 27 23 26 29 30 29 27 25 23 23 19 21 21 21 20 20 14 12 17 15 17 18 16 17 15 13 12 14 14 14 12 12 11 11
19 20 21 22 23 23 24 20 20 21 22 24 28 27 27 30 30 29 24 22 23 20 19 17 15 14 19 18 17 15 15 15 15 15 16 16 13 13 13 12 11 11 10 10
20 21 23 24 25 25 24 23 21 20 14 13 15 16 22 25 25 30 28 24 21 18 18 18 15 11 14 16 15 16 14 13 13 16 14 12 11 11 12 10 9 8 9 8
22 23 24 24 24 26 27 28 26 25 20 4 9 14 18 20 23 26 26 26 23 21 20 18 14 11 13 15 13 14 14 14 13 13 14 12 11 11 11 10 10 9 9 8
17 20 21 23 24 22 21 22 28 29 25 14 2 2 5 18 22 22 25 25 23 23 20 19 16 13 12 13 13 12 13 13 14 14 13 12 11 10 11 10 9 8 8 7
15 18 21 24 25 24 22 18 18 31 27 16 12 7 6 10 17 20 21 24 23 20 19 20 20 15 12 12 12 10 11 11 11 11 10 11 12 11 11 10 9 9 8 7
7 13 19 23 24 23 21 17 20 27 25 17 12 9 6 10 13 16 22 22 22 19 18 17 18 16 15 15 14 12 10 9 11 13 12 13 10 11 12 11 11 10 9 8
3 4 16 23 23 21 19 20 22 20 20 16 12 11 6 11 13 16 20 19 17 16 17 17 17 18 18 16 15 13 11 11 12 11 12 13 13 15 14 14 13 11 10 9
6 11 17 19 23 29 26 18 15 15 16 15 9 15 10 14 16 17 18 14 14 13 15 14 16 17 19 18 17 14 14 12 11 11 13 14 16 16 15 14 13 11 11 9
10 14 17 31 28 21 16 13 13 12 13 18 11 12 12 15 16 15 15 12 12 11 12 13 12 14 15 17 18 16 15 14 13 13 13 17 18 17 15 14 13 12 10 9
17 24 24 22 17 14 12 12 12 11 12 16 18 15 14 13 13 12 14 11 11 9 10 10 10 11 12 12 13 15 15 14 14 14 15 17 17 16 15 14 13 10 9 8
20 18 15 15 11 9 11 12 12 12 15 16 17 17 14 12 12 10 10 11 11 9 8 9 9 8 10 12 12 13 13 15 16 15 17 17 17 16 15 13 11 10 9 9
16 12 11 9 9 9 9 11 14 14 16 16 17 15 14 12 12 9 9 8 9 9 9 9 9 11 12 12 13 14 15 18 17 17 17 17 17 15 13 12 10 10 9 9
9 9 7 7 7 8 10 13 14 14 16 16 15 13 11 10 9 10 7 8 9 9 9 7 7 11 13 13 14 15 16 18 18 17 17 17 16 14 12 11 10 9 9 9
7 7 7 6 7 9 11 13 15 15 15 14 10 10 9 9 9 8 9 9 9 6 7 7 8 11 14 14 15 15 17 18 19 18 17 16 15 14 12 10 9 9 10 10
5 5 5 4 5 7 9 12 14 14 12 11 9 9 8 7 8 9 8 8 7 8 8 7 8 13 16 16 17 17 18 18 17 17 16 15 13 13 11 10 9 9 10 10
Wind_Direction
242 242 244 244 241 239 240 244 246 245 236 238 242 242 244 247 248 248 249 251 251 251 254 256 258 256 257 261 267 271 262 257 260 260 257 254 253 254 251 252 253 257 261 263
241 240 239 241 238 233 237 242 244 243 236 239 240 245 245 245 246 245 248 248 250 253 254 257 254 257 261 264 263 262 263 258 264 259 255 253 254 255 253 258 264 258 261 264
239 239 237 237 235 234 237 240 242 242 239 242 241 241 243 244 246 247 250 253 252 252 252 253 256 255 259 264 261 262 262 255 253 255 259 258 262 271 260 254 254 258 254 265
235 232 233 232 232 233 231 235 240 241 239 237 239 240 244 242 245 246 245 250 249 252 253 254 256 259 261 262 261 260 254 257 257 258 259 260 263 261 263 259 258 259 264 262
229 229 228 231 233 230 229 231 237 239 241 234 234 238 241 242 244 244 245 246 249 246 248 250 257 257 257 257 258 257 260 256 257 259 259 260 262 259 259 261 264 262 264 265
229 230 230 230 229 225 229 230 234 235 234 234 233 240 241 245 246 245 245 248 248 249 254 254 255 256 257 256 258 257 255 257 259 261 264 267 261 259 260 262 261 261 259 265
227 230 231 230 229 225 229 229 231 233 238 235 239 241 239 240 244 244 242 247 250 251 261 259 256 255 256 256 254 250 251 251 256 263 268 262 263 265 264 263 265 266 265 265
225 227 228 228 227 224 223 223 225 231 236 236 238 240 242 244 243 246 247 247 248 251 259 257 253 253 254 253 251 248 246 248 254 255 258 266 271 265 259 257 269 270 261 263
225 225 226 226 226 226 225 227 228 235 240 243 242 243 241 243 245 248 248 247 247 244 246 252 250 246 246 250 251 254 245 242 243 250 255 260 263 265 260 249 264 273 264 254
227 226 226 228 227 226 227 232 232 238 245 247 241 241 241 241 242 246 245 243 244 241 239 245 251 249 246 247 247 246 246 242 240 246 250 260 260 254 254 249 261 263 259 257
227 228 228 228 227 226 227 232 231 234 243 245 242 239 238 238 238 240 242 244 241 238 237 237 244 247 244 243 244 237 239 240 236 239 243 252 255 243 241 256 259 257 251 255
234 233 231 229 227 225 224 229 228 230 237 243 241 239 238 237 235 235 234 235 232 228 225 229 238 241 234 227 235 236 239 237 238 237 241 247 251 243 253 248 247 251 250 250
232 230 226 223 222 219 219 222 221 224 236 245 244 239 238 237 234 231 231 230 226 227 220 225 228 250 225 225 235 234 238 238 241 242 241 244 247 250 249 243 243 245 246 236
237 234 231 230 227 224 220 219 219 216 221 237 243 233 230 229 226 222 224 223 220 218 217 221 228 252 228 226 234 232 237 225 238 244 238 237 255 228 229 228 226 229 225 232
244 238 234 230 227 225 224 223 221 213 204 213 243 234 230 222 219 218 215 217 216 213 213 215 227 238 230 227 232 232 230 237 238 241 225 235 236 221 218 217 218 218 220 204
236 232 227 221 217 211 205 211 214 207 205 219 243 198 234 216 212 207 210 210 209 211 213 216 222 237 234 230 224 231 231 240 235 231 224 232 208 218 215 208 214 203 190 193
242 233 226 217 209 203 204 209 207 197 195 207 224 257 275 201 199 205 205 201 202 206 216 219 220 235 232 223 220 237 245 243 225 207 206 210 215 223 210 203 188 180 180 181
231 224 208 199 193 192 198 198 188 186 195 206 221 234 226 190 191 191 191 193 200 210 214 216 220 226 225 228 230 246 239 227 212 212 225 215 208 201 193 188 183 176 176 174
155 159 182 175 179 180 180 177 173 182 195 202 215 204 194 181 175 175 178 186 198 209 212 220 218 221 220 222 230 231 232 223 215 219 208 203 199 189 188 183 180 176 177 177
148 149 149 160 166 153 148 159 173 184 197 197 225 196 190 173 172 173 178 192 192 204 216 214 224 228 231 228 231 241 229 219 217 204 207 203 191 186 183 185 184 183 181 183
147 151 152 143 149 161 172 175 184 188 193 197 189 179 171 176 179 184 193 196 201 212 216 217 227 232 230 232 235 225 219 221 214 210 201 190 181 180 181 182 181 181 185 188
136 138 142 148 159 166 175 183 184 188 186 182 186 177 170 173 180 184 193 198 204 216 199 217 228 231 226 219 216 212 212 206 198 190 180 179 181 180 178 178 180 185 187 189
129 132 140 152 162 163 175 176 177 172 171 169 172 176 180 184 185 183 188 192 202 188 206 225 235 233 219 203 201 197 198 187 178 179 177 177 176 178 178 179 185 186 189 190
129 133 139 150 161 167 165 167 164 159 158 156 158 161 168 170 176 181 192 199 204 221 234 242 248 222 202 199 192 188 182 179 177 176 175 175 175 178 182 185 189 191 192 192
126 130 126 141 154 155 156 155 156 158 161 157 156 162 170 178 186 200 192 201 223 230 235 240 236 208 197 194 189 185 183 182 180 180 177 176 178 181 183 190 193 195 196 197
135 134 126 121 140 152 160 161 162 164 162 166 171 181 187 196 202 202 212 211 226 235 246 253 229 205 195 189 184 179 175 173 173 174 177 178 181 184 188 193 199 204 204 205
155 156 151 149 144 156 167 171 170 172 174 179 186 189 201 200 213 215 223 229 238 253 257 249 218 189 179 175 171 171 171 172 175 175 177 180 183 186 193 202 210 211 214 215